sat.trackr.live / text

‹ back to catalog

STARLINK-11263 [DTC]

NORAD 60725 · 2024-152F

PAYLOAD ACTIVE UNKNOWN

§ Identity

Operator
Country
US
Launch date
2024-08-28
Launch site
AFETR
Launch vehicle
Mass (kg)
RCS (m²)

Purposes: comms

External: N2YO · Heavens-Above · Gunter

§ Orbital elements

Epoch: 2026-09-21T02:01:57.813888Z

Period
91.74 min
Inclination
53.1554°
Eccentricity
0.0000832
Mean motion
15.69711691 rev/d
Perigee alt
359.2 km
Apogee alt
360.3 km
Semi-major
6,737.9 km
B*
1.5036e-6
RAAN
233.0599°
Arg perigee
81.2315°
Mean anomaly
278.8797°
Rev number
11,952

§ Raw data

STARLINK-11263 [DTC]1 60725U 24152F   26264.08469692 -.00000406  00000+0  15036-5 0  99982 60725  53.1554 233.0599 0000832  81.2315 278.8797 15.69711691119521

JSON: /api/v1/satellites/60725 · /tle

For live sub-satellite position, see the globe view (requires WebGL).

§ Visibility from observer

Set your observer location to see the next 7 days of passes ≥ 10°. The values pass through the URL so the page stays shareable.

No JS? Fill the form by hand. The geolocation button needs JavaScript.